Location: Étavigny
(49.1201°N, 2.9800°E)
Time: 06:51:52
(UTC+00:00)

Meteor 1-24 Rocket - Pass Details

Date: 28 January 2023
Orbit: 790 x 927 km, 81.3° (Epoch: 30 March)

Event Time Altitude Azimuth Distance (km) Brightness Sun altitude
Rises 17:03:31 0° 184° (S) 3,483 7.3 -4.6°
Reaches altitude 10° 17:05:59 10° 183° (S) 2,528 6.5 -5.0°
Maximum altitude 17:11:43 75° 99° (E) 890 3.7 -5.9°
Drops below altitude 10° 17:17:16 10° 15° (NNE) 2,453 5.8 -6.7°
Sets 17:19:38 0° 14° (NNE) 3,372 6.5 -7.1°
